DELGM EDJA-EDNY

Flight info

Callsign DELGM
Flight time 0h 33m
Altitude
Route
Aircraft

Departure

Time 2026-04-23 18:14
Airport Memmingen Allgau Airport (EDJA)

Arrival

Time 2026-04-23 18:48
Airport Bodensee Airport Friedrichshafen (EDNY)
Time Latitude Longitude Altitude Speed Heading
2026-04-23 18:12 47.98666 10.23658 2074 ft 0 kts 276°
2026-04-23 18:12 47.98666 10.23657 2074 ft 1 kts 276°
2026-04-23 18:13 47.98699 10.23612 2074 ft 9 kts 328°
2026-04-23 18:13 47.98744 10.23607 2074 ft 8 kts 60°
2026-04-23 18:13 47.98854 10.23887 2072 ft 53 kts 59°
2026-04-23 18:13 47.99074 10.24433 2155 ft 64 kts 55°
2026-04-23 18:14 47.99232 10.24816 2227 ft 67 kts 55°
2026-04-23 18:14 47.99478 10.25675 2433 ft 72 kts 91°
2026-04-23 18:14 47.99229 10.26324 2626 ft 77 kts 135°
2026-04-23 18:14 47.98831 10.26868 2810 ft 78 kts 135°
2026-04-23 18:15 47.98376 10.27349 2974 ft 82 kts 152°
2026-04-23 18:15 47.97837 10.27678 3109 ft 88 kts 161°
2026-04-23 18:15 47.97225 10.27773 3253 ft 89 kts 186°
2026-04-23 18:15 47.96588 10.27592 3374 ft 96 kts 197°
2026-04-23 18:16 47.95946 10.27280 3489 ft 97 kts 201°
2026-04-23 18:16 47.95308 10.26954 3589 ft 98 kts 196°
2026-04-23 18:16 47.94630 10.26763 3673 ft 101 kts 189°
2026-04-23 18:17 47.93144 10.26461 3776 ft 112 kts 184°
2026-04-23 18:17 47.92361 10.26377 3795 ft 113 kts 184°
2026-04-23 18:17 47.91842 10.26327 3804 ft 114 kts 183°
2026-04-23 18:17 47.90778 10.26302 3753 ft 116 kts 177°
2026-04-23 18:18 47.89968 10.26366 3750 ft 117 kts 175°
2026-04-23 18:18 47.89146 10.26495 3888 ft 121 kts 170°
2026-04-23 18:18 47.88596 10.26661 3964 ft 122 kts 168°
2026-04-23 18:18 47.87765 10.26938 3974 ft 122 kts 163°
2026-04-23 18:19 47.86969 10.27345 4078 ft 121 kts 158°
2026-04-23 18:19 47.86176 10.27806 4024 ft 123 kts 157°
2026-04-23 18:19 47.85380 10.28277 3977 ft 123 kts 156°
2026-04-23 18:19 47.84588 10.28748 3909 ft 122 kts 156°
2026-04-23 18:20 47.83832 10.29194 3943 ft 115 kts 157°
2026-04-23 18:20 47.83122 10.29651 4020 ft 108 kts 157°
2026-04-23 18:20 47.82434 10.30124 4112 ft 112 kts 151°
2026-04-23 18:20 47.81825 10.30879 4023 ft 116 kts 121°
2026-04-23 18:21 47.81405 10.31863 4021 ft 113 kts 137°
2026-04-23 18:21 47.80721 10.32323 4106 ft 107 kts 168°
2026-04-23 18:21 47.79975 10.32454 4164 ft 107 kts 173°
2026-04-23 18:21 47.79254 10.32576 4275 ft 102 kts 171°
2026-04-23 18:22 47.78575 10.32798 4493 ft 97 kts 162°
2026-04-23 18:22 47.77936 10.33152 4586 ft 100 kts 155°
2026-04-23 18:22 47.77277 10.33545 4603 ft 103 kts 156°
2026-04-23 18:22 47.76608 10.33901 4728 ft 101 kts 160°
2026-04-23 18:23 47.75942 10.34215 4846 ft 100 kts 161°
2026-04-23 18:23 47.74636 10.34870 5011 ft 95 kts 160°
2026-04-23 18:24 47.73334 10.35131 5260 ft 97 kts 192°
2026-04-23 18:24 47.72706 10.34794 5401 ft 96 kts 206°
2026-04-23 18:24 47.72116 10.34324 5522 ft 95 kts 212°
2026-04-23 18:25 47.71155 10.33035 5874 ft 92 kts 236°
2026-04-23 18:25 47.70832 10.32224 6086 ft 89 kts 245°
2026-04-23 18:25 47.70566 10.31422 6261 ft 86 kts 246°
2026-04-23 18:25 47.70335 10.30615 6455 ft 83 kts 249°
2026-04-23 18:26 47.70117 10.29804 6542 ft 85 kts 251°
2026-04-23 18:26 47.69928 10.28987 6625 ft 85 kts 253°
2026-04-23 18:26 47.69745 10.28124 6694 ft 86 kts 251°
2026-04-23 18:26 47.69547 10.27291 6768 ft 88 kts 252°
2026-04-23 18:27 47.69362 10.26374 6759 ft 97 kts 255°
2026-04-23 18:27 47.69168 10.25383 6760 ft 101 kts 255°
2026-04-23 18:27 47.68971 10.24373 6761 ft 104 kts 255°
2026-04-23 18:27 47.68769 10.23334 6761 ft 105 kts 255°
2026-04-23 18:28 47.68569 10.22300 6755 ft 105 kts 255°
2026-04-23 18:28 47.68365 10.21242 6762 ft 107 kts 255°
2026-04-23 18:28 47.68163 10.20193 6760 ft 109 kts 255°
2026-04-23 18:28 47.67953 10.19110 6753 ft 109 kts 255°
2026-04-23 18:29 47.67742 10.18037 6758 ft 108 kts 255°
2026-04-23 18:29 47.67533 10.16962 6759 ft 108 kts 256°
2026-04-23 18:29 47.67329 10.15886 6757 ft 108 kts 255°
2026-04-23 18:29 47.67123 10.14821 6755 ft 109 kts 255°
2026-04-23 18:30 47.66916 10.13744 6751 ft 107 kts 255°
2026-04-23 18:30 47.66714 10.12678 6749 ft 107 kts 255°
2026-04-23 18:30 47.66510 10.11614 6756 ft 109 kts 255°
2026-04-23 18:30 47.66303 10.10523 6762 ft 109 kts 256°
2026-04-23 18:31 47.66103 10.09421 6758 ft 113 kts 259°
2026-04-23 18:31 47.65959 10.08294 6751 ft 111 kts 260°
2026-04-23 18:31 47.65816 10.07183 6752 ft 108 kts 260°
2026-04-23 18:31 47.65677 10.06104 6748 ft 107 kts 260°
2026-04-23 18:32 47.65537 10.04995 6750 ft 109 kts 260°
2026-04-23 18:32 47.65397 10.03881 6752 ft 109 kts 260°
2026-04-23 18:32 47.65259 10.02785 6741 ft 107 kts 260°
2026-04-23 18:32 47.65122 10.01699 6739 ft 106 kts 260°
2026-04-23 18:33 47.64985 10.00638 6694 ft 108 kts 260°
2026-04-23 18:33 47.64836 9.99512 6548 ft 113 kts 260°
2026-04-23 18:33 47.64681 9.98357 6452 ft 116 kts 259°
2026-04-23 18:33 47.64450 9.97180 6221 ft 121 kts 254°
2026-04-23 18:34 47.64227 9.95946 5935 ft 126 kts 257°
2026-04-23 18:34 47.64017 9.94670 5699 ft 126 kts 258°
2026-04-23 18:34 47.63838 9.93415 5504 ft 126 kts 261°
2026-04-23 18:34 47.63676 9.92140 5327 ft 125 kts 259°
2026-04-23 18:35 47.63551 9.90860 5162 ft 127 kts 268°
2026-04-23 18:35 47.63456 9.89564 5067 ft 126 kts 264°
2026-04-23 18:35 47.63377 9.88300 4998 ft 123 kts 270°
2026-04-23 18:35 47.63305 9.87016 4924 ft 126 kts 264°
2026-04-23 18:36 47.63172 9.85707 4706 ft 129 kts 262°
2026-04-23 18:36 47.62984 9.84413 4598 ft 129 kts 259°
2026-04-23 18:36 47.62790 9.83121 4548 ft 127 kts 259°
2026-04-23 18:36 47.62603 9.81849 4442 ft 126 kts 258°
2026-04-23 18:37 47.62395 9.80588 4370 ft 127 kts 257°
2026-04-23 18:37 47.62167 9.79321 4111 ft 131 kts 257°
2026-04-23 18:37 47.61942 9.78029 3916 ft 127 kts 257°
2026-04-23 18:37 47.61738 9.76786 3843 ft 122 kts 258°
2026-04-23 18:38 47.61379 9.75660 3759 ft 118 kts 238°
2026-04-23 18:38 47.60948 9.74645 3707 ft 115 kts 238°
2026-04-23 18:38 47.60537 9.73649 3690 ft 114 kts 238°
2026-04-23 18:38 47.60085 9.72704 3755 ft 110 kts 232°
2026-04-23 18:39 47.59589 9.71831 3701 ft 110 kts 228°
2026-04-23 18:39 47.59048 9.71039 3668 ft 109 kts 219°
2026-04-23 18:39 47.58431 9.70411 3701 ft 108 kts 208°
2026-04-23 18:39 47.57754 9.70070 3716 ft 102 kts 171°
2026-04-23 18:40 47.57276 9.70627 3754 ft 88 kts 99°
2026-04-23 18:40 47.57511 9.71371 3721 ft 88 kts 26°
2026-04-23 18:40 47.58105 9.71168 3838 ft 99 kts 315°
2026-04-23 18:40 47.58181 9.70147 3798 ft 112 kts 248°
2026-04-23 18:41 47.57887 9.69022 3634 ft 122 kts 256°
2026-04-23 18:41 47.57759 9.67775 3468 ft 122 kts 272°
2026-04-23 18:41 47.57860 9.66545 3332 ft 117 kts 285°
2026-04-23 18:41 47.58088 9.65408 3385 ft 113 kts 292°
2026-04-23 18:42 47.58373 9.64297 3250 ft 120 kts 296°
2026-04-23 18:42 47.58724 9.63147 3162 ft 126 kts 297°
2026-04-23 18:42 47.59113 9.61963 2865 ft 133 kts 295°
2026-04-23 18:42 47.59398 9.60683 2670 ft 124 kts 296°
2026-04-23 18:43 47.59831 9.59651 2626 ft 114 kts 313°
2026-04-23 18:43 47.60370 9.58814 2671 ft 109 kts 318°
2026-04-23 18:43 47.60871 9.58006 2735 ft 106 kts 315°
2026-04-23 18:43 47.61369 9.57232 2740 ft 103 kts 316°
2026-04-23 18:44 47.61808 9.56409 2827 ft 105 kts 309°
2026-04-23 18:44 47.62257 9.55541 2771 ft 105 kts 314°
2026-04-23 18:44 47.62754 9.54791 2752 ft 100 kts 323°
2026-04-23 18:44 47.63301 9.54147 2710 ft 99 kts 326°
2026-04-23 18:45 47.63836 9.53526 2855 ft 99 kts 323°
2026-04-23 18:45 47.64356 9.52792 2869 ft 104 kts 319°
2026-04-23 18:45 47.64587 9.51803 2821 ft 111 kts 262°
2026-04-23 18:45 47.64193 9.50846 2784 ft 112 kts 228°
2026-04-23 18:46 47.63753 9.49967 2807 ft 104 kts 250°
2026-04-23 18:46 47.63801 9.48906 2660 ft 106 kts 303°
2026-04-23 18:46 47.64279 9.48175 2496 ft 94 kts 330°
2026-04-23 18:46 47.64820 9.47766 2419 ft 79 kts 342°
2026-04-23 18:47 47.65322 9.47547 2306 ft 73 kts 352°
2026-04-23 18:47 47.65781 9.47681 2240 ft 68 kts 45°
2026-04-23 18:47 47.66016 9.48293 2014 ft 68 kts 60°
2026-04-23 18:47 47.66249 9.48873 1775 ft 64 kts 55°
2026-04-23 18:48 47.66474 9.49448 1577 ft 65 kts 56°
2026-04-23 18:48 47.66699 9.50026 1418 ft 62 kts 57°
2026-04-23 18:48 47.66892 9.50528 1347 ft 44 kts 61°
2026-04-23 18:48 47.67010 9.50836 1348 ft 28 kts 60°
2026-04-23 18:49 47.67101 9.51069 1355 ft 26 kts 59°
2026-04-23 18:49 47.67181 9.51174 1356 ft 11 kts 326°
2026-04-23 18:49 47.67262 9.51076 1355 ft 19 kts 323°
2026-04-23 18:49 47.67351 9.50975 1354 ft 13 kts 328°
2026-04-23 18:50 47.67402 9.50931 1350 ft 11 kts 329°
2026-04-23 18:50 47.67399 9.50863 1349 ft 4 kts 200°
2026-04-23 18:50 47.67392 9.50868 1349 ft 0 kts 141°